Bandar Seri Begawan, Brunei

4:15 AM +08 on October 23, 2017 (GMT +0800)
Bandar Seri Begawan

Weather History for 96315 - October, 2013

Change the Weather History Date:

Tuesday, October 8, 2013

  Actual Average Record
Temperature  
Mean Temperature 79 °F -  
Max Temperature 88 °F 86 °F - ()
Min Temperature 70 °F 74 °F - ()
Cooling Degree Days 14    
Growing Degree Days 29 (Base 50)    
Moisture  
Dew Point 74 °F    
Average Humidity 80    
Maximum Humidity 100    
Minimum Humidity 57    
Precipitation  
Precipitation 0.02 in 0.42 in - ()
Sea Level Pressure  
Sea Level Pressure 29.86 in    
Wind  
Wind Speed 5 mph ()    
Max Wind Speed 12 mph    
Max Gust Speed -    
Visibility 5.2 miles    
Events Rain , Thunderstorm    
T = Trace of Precipitation, MM = Missing Value Source: Averaged Metar Reports

Daily Weather History Graph

Daily Weather History Graph

Search for Another Location

Airport or City:

Trip Planner

Search our weather history database for the weather conditions in past years. The results will help you decide how hot, cold, wet, or windy it might be!

Date:

Astronomy

Oct. 08, 2013 Rise Set
Actual Time 6:06 AM +08 6:09 PM +08
Civil Twilight 5:45 AM +08 6:29 PM +08
Nautical Twilight 5:21 AM +08 6:54 PM +08
Astronomical Twilight 4:57 AM +08 7:18 PM +08
Moon 8:44 AM +08 (10/8) 8:58 PM +08 (10/8)
Length of Visible Light 12h 44m
Length of Day
12h 02m
Waxing Crescent, 12% of the Moon is Illuminated
Oct 8
Waxing Crescent
Oct 12
First Quarter
Oct 19
Full
Oct 27
Last Quarter
Nov 3
New

Hourly Weather History & Observations

Time (+08) Temp. Heat Index Dew Point Humidity Pressure Visibility Wind Dir Wind Speed Gust Speed Precip Events Conditions
12:00 AM 75.2 °F - 73.4 °F 94% 29.89 in 6.2 mi SSE 5.8 mph - N/A   Mostly Cloudy
12:30 AM 75.2 °F - 73.4 °F 94% 29.89 in 6.2 mi South 4.6 mph - N/A   Mostly Cloudy
1:00 AM 75.2 °F - 73.4 °F 94% 29.86 in 6.2 mi SSW 4.6 mph - N/A Thunderstorm Thunderstorm
1:30 AM 75.2 °F - 73.4 °F 94% 29.86 in 5.0 mi SSW 4.6 mph - N/A Rain , Thunderstorm Light Thunderstorms and Rain
2:00 AM 75 °F - 73 °F 90% 29.86 in 5 mi SSW 11.5 mph - -  
2:00 AM 75.2 °F - 73.4 °F 94% 29.86 in 5.0 mi SSW 11.5 mph - N/A Rain , Thunderstorm Light Thunderstorms and Rain
2:30 AM 75.2 °F - 73.4 °F 94% 29.86 in 5.0 mi WSW 4.6 mph - N/A Rain , Thunderstorm Light Thunderstorms and Rain
3:00 AM 75.2 °F - 73.4 °F 94% 29.86 in 5.0 mi SSW 4.6 mph - N/A Rain , Thunderstorm Light Thunderstorms and Rain
3:30 AM 75.2 °F - 73.4 °F 94% 29.86 in 5.0 mi South 2.3 mph - N/A Rain Light Rain
4:00 AM 75.2 °F - 73.4 °F 94% 29.86 in 4.3 mi South 2.3 mph - N/A Rain Light Rain
4:30 AM 73.4 °F - 73.4 °F 100% 29.86 in 4.3 mi SE 2.3 mph - N/A Rain Light Rain
5:00 AM 74 °F - 74 °F 98% 29.87 in 5 mi South 3.5 mph - - Rain Light Rain
5:00 AM 73.4 °F - 73.4 °F 100% 29.86 in 5.0 mi South 3.5 mph - N/A   Mostly Cloudy
5:30 AM 75.2 °F - 73.4 °F 94% 29.86 in 5.6 mi SW 1.2 mph - N/A   Mostly Cloudy
6:00 AM 73.4 °F - 73.4 °F 100% 29.86 in 5.6 mi NNW 1.2 mph - N/A   Mostly Cloudy
6:30 AM 73.4 °F - 73.4 °F 100% 29.89 in 6.2 mi SE 2.3 mph - N/A   Mostly Cloudy
7:00 AM 75.2 °F - 73.4 °F 94% 29.89 in 6.2 mi SSE 4.6 mph - N/A   Mostly Cloudy
7:30 AM 75.2 °F - 73.4 °F 94% 29.89 in 6.2 mi SSE 5.8 mph - N/A   Mostly Cloudy
8:00 AM 76 °F - 74 °F 90% 29.91 in 6 mi SSE 6.9 mph - -   Haze
8:00 AM 75.2 °F - 73.4 °F 94% 29.89 in 6.2 mi SSE 6.9 mph - N/A   Mostly Cloudy
8:30 AM 77.0 °F - 75.2 °F 94% 29.92 in 5.0 mi South 5.8 mph - N/A Rain Light Rain Showers
9:00 AM 77.0 °F - 73.4 °F 89% 29.92 in 6.2 mi South 4.6 mph - N/A   Mostly Cloudy
9:30 AM 78.8 °F - 73.4 °F 83% 29.92 in 6.2 mi South 4.6 mph - N/A   Mostly Cloudy
10:00 AM 82.4 °F 89.5 °F 75.2 °F 79% 29.92 in 6.2 mi South 8.1 mph - N/A   Mostly Cloudy
10:30 AM 84.2 °F 89.6 °F 71.6 °F 66% 29.92 in 6.2 mi South 6.9 mph - N/A   Mostly Cloudy
11:00 AM 87 °F - 74 °F 57% 29.88 in 6 mi SSW 9.2 mph - -   Haze
11:00 AM 84.2 °F 89.6 °F 71.6 °F 66% 29.89 in 6.2 mi South 9.2 mph - N/A   Mostly Cloudy
11:30 AM 86.0 °F 93.4 °F 73.4 °F 66% 29.89 in 6.2 mi SSW 8.1 mph - N/A   Mostly Cloudy
12:00 PM 86.0 °F 93.4 °F 73.4 °F 66% 29.86 in 6.2 mi SSW 9.2 mph - N/A   Mostly Cloudy
12:30 PM 86.0 °F 93.4 °F 73.4 °F 66% 29.86 in 6.2 mi SW 8.1 mph - N/A   Mostly Cloudy
1:00 PM 86.0 °F 93.4 °F 73.4 °F 66% 29.86 in 6.2 mi SW 8.1 mph - N/A   Mostly Cloudy
1:30 PM 86.0 °F 93.4 °F 73.4 °F 66% 29.83 in 6.2 mi WSW 4.6 mph - N/A   Mostly Cloudy
2:00 PM 86 °F - 74 °F 59% 29.83 in 6 mi WSW 9.2 mph - -   Haze
2:00 PM 86.0 °F 93.4 °F 73.4 °F 66% 29.80 in 6.2 mi WSW 9.2 mph - N/A   Mostly Cloudy
2:30 PM 87.8 °F 95.6 °F 73.4 °F 62% 29.80 in 5.6 mi SW 10.4 mph - N/A   Mostly Cloudy
3:00 PM 87.8 °F 97.6 °F 75.2 °F 66% 29.80 in 5.6 mi SW 8.1 mph - N/A   Mostly Cloudy
3:30 PM 87.8 °F 95.6 °F 73.4 °F 62% 29.80 in 5.0 mi SSW 8.1 mph - N/A   Mostly Cloudy
4:00 PM 87.8 °F 95.6 °F 73.4 °F 62% 29.80 in 5.0 mi WSW 8.1 mph - N/A   Mostly Cloudy
4:30 PM 86.0 °F 95.1 °F 75.2 °F 70% 29.80 in 5.0 mi West 9.2 mph - N/A   Mostly Cloudy
5:00 PM 85 °F - 76 °F 67% 29.83 in 5 mi West 8.1 mph - -   Haze
5:00 PM 84.2 °F 92.3 °F 75.2 °F 74% 29.83 in 5.0 mi West 8.1 mph - N/A   Mostly Cloudy
5:30 PM 84.2 °F 92.3 °F 75.2 °F 74% 29.83 in 3.1 mi WSW 8.1 mph - N/A   Haze
6:00 PM 84.2 °F 92.3 °F 75.2 °F 74% 29.83 in 3.1 mi WSW 6.9 mph - N/A   Haze
6:30 PM 84.2 °F 90.9 °F 73.4 °F 70% 29.83 in 3.1 mi SW 4.6 mph - N/A   Haze
7:00 PM 82.4 °F 88.2 °F 73.4 °F 74% 29.86 in 3.1 mi SW 3.5 mph - N/A   Haze
7:30 PM 82.4 °F 88.2 °F 73.4 °F 74% 29.86 in 4.3 mi WSW 3.5 mph - N/A   Haze
8:00 PM 82 °F - 73 °F 68% 29.87 in 4 mi WSW 2.3 mph - -   Haze
8:00 PM 82.4 °F 88.2 °F 73.4 °F 74% 29.86 in 4.3 mi WSW 2.3 mph - N/A   Mostly Cloudy
8:30 PM 82.4 °F 88.2 °F 73.4 °F 74% 29.86 in 4.3 mi SW 2.3 mph - N/A   Mostly Cloudy
9:00 PM 82.4 °F 88.2 °F 73.4 °F 74% 29.86 in 4.3 mi SW 3.5 mph - N/A   Mostly Cloudy
9:30 PM 82.4 °F 88.2 °F 73.4 °F 74% 29.89 in 4.3 mi South 4.6 mph - N/A   Mostly Cloudy
10:00 PM 80.6 °F 85.4 °F 73.4 °F 79% 29.89 in 4.3 mi SW 2.3 mph - N/A   Mostly Cloudy
10:30 PM 80.6 °F 85.4 °F 73.4 °F 79% 29.89 in 4.3 mi South 2.3 mph - N/A   Mostly Cloudy
11:00 PM 79 °F - 73 °F 77% 29.91 in 4 mi SW 3.5 mph - -   Haze
11:00 PM 78.8 °F - 73.4 °F 83% 29.89 in 4.3 mi SW 3.5 mph - N/A   Mostly Cloudy
11:30 PM 80.6 °F 84.6 °F 71.6 °F 74% 29.89 in 5.6 mi South 2.3 mph - N/A   Mostly Cloudy